Location: El Abasto
(10.3790°N, 67.5897°W)
Time: 18:47:06
(UTC+00:00)

Cosmos 1802 Rocket - Pass Details

Date: 19 May 2024
Orbit: 955 x 1010 km, 82.9° (Epoch: 11 June)

Event Time Altitude Azimuth Distance (km) Brightness Sun altitude
Rises 23:31:39 0° 358° (N) 3,728 7.4 -11.3°
Reaches altitude 10° 23:34:11 10° 359° (N) 2,775 6.7 -11.9°
Maximum altitude 23:40:35 81° 86° (E) 1,012 4.0 -13.3°
Drops below altitude 10° 23:46:54 10° 174° (S) 2,746 6.1 -14.7°
Sets 23:49:24 0° 175° (S) 3,687 6.7 -15.3°
